RH
18 18 17 18 18 18 19 18 18 18 18 20 19 19 19 18 19 22 24 26 28 30 26 20 22 27 32 39 44 47 47 46 47 49 51 47 39 39 42 42 45 47
18 18 17 18 19 17 17 17 17 17 17 18 18 18 19 18 18 19 22 26 29 30 27 20 21 26 31 36 41 46 48 47 47 50 51 45 37 38 41 40 41 41
18 19 19 18 18 16 17 18 18 17 17 17 18 18 19 18 17 17 19 24 28 31 30 23 22 25 30 35 39 45 49 48 47 49 50 44 37 38 40 40 43 43
18 20 20 18 18 18 19 20 19 18 18 17 17 17 18 18 18 16 16 20 24 29 31 26 23 24 29 33 38 44 48 48 47 47 50 47 39 37 38 39 44 47
18 19 19 21 22 21 22 23 22 21 20 19 18 18 18 18 18 17 16 16 20 25 28 25 23 25 27 31 37 42 45 48 47 45 49 49 40 36 38 37 40 43
18 18 19 21 22 22 23 24 24 24 23 22 21 20 20 18 18 18 16 15 17 21 25 25 24 25 26 29 36 40 42 45 46 45 48 47 40 36 37 37 37 38
19 20 21 22 23 23 23 25 25 26 26 25 24 23 23 21 19 18 17 16 15 18 22 24 24 26 27 28 33 39 42 42 42 44 45 43 40 37 37 37 37 37
23 24 25 25 25 25 25 25 25 25 26 26 26 26 25 24 22 20 18 16 15 16 19 23 25 27 28 28 30 37 41 40 39 39 38 38 39 38 37 37 38 37
26 26 25 25 25 25 25 25 25 25 25 26 26 27 27 26 24 22 20 17 16 16 18 21 24 27 28 28 29 34 40 41 39 35 33 35 38 39 39 38 38 37
30 28 26 25 25 25 25 25 24 24 23 24 25 26 27 27 26 25 23 20 18 17 18 20 23 26 28 29 29 33 38 41 41 36 33 34 37 39 40 40 39 38
34 32 31 30 28 27 25 24 24 24 24 24 24 25 26 27 27 27 26 24 22 20 19 21 23 26 28 29 29 32 36 40 41 39 34 33 35 38 41 42 41 39
34 34 35 34 33 31 30 28 26 25 25 24 24 24 25 26 26 27 27 26 26 24 22 23 24 26 28 29 29 31 34 38 41 41 37 34 35 37 40 42 42 41
34 34 35 35 34 34 33 31 28 27 27 26 25 24 24 23 23 24 25 27 27 27 25 25 25 26 28 29 29 30 33 36 40 41 39 36 35 35 38 41 42 42
36 35 36 36 35 33 33 32 29 28 29 29 28 26 25 23 21 21 22 24 26 26 26 26 26 27 28 29 29 30 32 35 38 41 40 38 37 36 37 39 41 42
38 37 36 36 35 33 31 30 29 29 31 32 31 29 28 26 23 21 20 20 21 23 24 24 26 28 28 28 29 29 30 33 37 40 40 40 38 37 38 39 40 41
41 39 37 37 35 32 30 29 30 32 33 34 33 33 33 31 27 23 22 21 20 21 22 23 24 27 28 28 28 28 29 32 35 38 39 39 39 39 39 39 40 40
43 40 38 36 34 33 32 32 33 34 35 36 37 37 37 37 33 28 24 23 21 21 22 23 24 26 28 28 28 28 29 31 33 36 38 38 38 39 39 39 39 40
43 40 39 37 35 34 34 35 37 37 37 37 38 39 39 39 38 34 29 26 23 22 22 23 24 26 27 27 27 27 28 30 32 35 37 37 37 37 39 39 39 39
42 41 39 37 36 36 37 38 39 39 38 39 41 42 42 41 40 39 36 31 27 24 23 23 23 24 25 25 24 25 26 28 31 34 35 35 36 36 38 38 39 40
41 41 41 39 39 39 40 40 41 41 42 43 44 44 43 44 43 42 40 37 32 29 26 24 23 23 22 22 22 22 23 25 29 32 34 35 35 36 36 37 38 39
41 42 42 43 42 42 42 43 43 44 45 46 47 45 45 46 46 44 42 39 37 34 30 28 27 25 22 21 21 21 22 24 27 30 33 34 34 34 35 36 36 37
39 41 42 42 43 43 43 44 44 44 45 47 47 47 47 47 47 46 43 42 42 40 36 32 31 30 26 21 20 21 23 24 25 28 30 32 33 33 35 37 37 37
38 39 41 42 43 43 43 43 43 44 45 46 47 47 47 47 47 47 46 45 44 42 40 37 36 35 32 27 22 21 22 23 24 26 28 30 32 34 36 38 39 39
40 41 42 43 43 42 41 42 42 43 45 46 46 46 47 47 48 48 48 47 44 43 43 42 40 39 37 34 29 24 22 23 24 26 26 29 33 36 38 41 42 40
41 42 43 44 44 43 42 42 43 45 46 47 47 47 47 49 50 50 50 49 48 49 49 48 47 46 42 38 35 31 28 26 27 28 27 28 33 36 37 41 43 40
39 40 40 42 43 43 44 45 46 47 47 45 45 46 47 48 49 49 50 51 51 54 53 50 50 52 50 44 39 36 35 32 30 30 29 30 32 34 35 38 41 40